User: anonymous   Login
Location: *
(44.3683°N, 6.6958°E)
Time: 15:42:03
(UTC+00:00)
Language:

STARLINK-61 - Orbit

View from above orbital plane
View from above orbital plane
View from above satellite
View from above satellite

Ground track
Ground track

The orbit data is extracted from the following two-line orbital elements,

1 44249U 19029Q   19344.25002315 -.00016500  00000-0 -93131-3 0  9997
2 44249  53.0011 346.4989 0004440  10.3192 316.3220 15.12130611 30412
Epoch (UTC): 10 December 2019 06:00:02
Eccentricity: 0.0004440
inclination: 53.0011°
perigee height: 526 km
apogee height: 533 km
right ascension of ascending node: 346.4989°
argument of perigee: 10.3192°
revolutions per day: 15.12130611
mean anomaly at epoch: 316.3220°
orbit number at epoch: 3041

The dashed part of the orbit path shows where the satellite is in the earth's shadow,  

DLR